Regional Weather Roundup
Issued by NWS Kansas City/Pleasant Hill, MO

Home | Current Version | Previous Version | Text Only | Print | Product List | Glossary On
Versions: 1 2 3 4 5 6 7 8 9 10 11 12 13 14 15 16 17 18 19 20 21 22 23 24 25 26 27 28 29 30 31 32 33 34 35 36 37 38 39 40 41 42 43 44 45 46 47 48 49 50
000
ASUS43 KEAX 161404
RWREAX

WEATHER ROUNDUP FOR EASTERN KANSAS AND NORTHWEST MISSOURI
NATIONAL WEATHER SERVICE KANSAS CITY/PLEASANT HILL MO
900 AM CDT TUE SEP 16 2014

KSZ040-057-103>105-MOZ028-029-037-043-161500-
...KANSAS CITY METROPOLITAN AREA...

CITY           SKY/WX    TMP DP  RH WIND       PRES   REMARKS
K.C. INTL      SUNNY     53  49  86 E5        30.24F
K.C. DOWNTOWN  SUNNY     56  50  80 E3        30.25S
LEES SUMMIT    SUNNY     54  50  86 NE8       30.25S
OLATHE - IXD   SUNNY     54  51  90 NE6       30.25S
OLATHE - OJC   SUNNY     54  50  86 NE7       30.24S
LAWRENCE       SUNNY     53  49  86 NE6       30.25S

$$

MOZ001>008-011>017-020>025-030>033-038>040-044>046-053-054-161500-
...NORTHERN AND CENTRAL MISSOURI...

CITY           SKY/WX    TMP DP  RH WIND       PRES   REMARKS
ST. JOSEPH     SUNNY     49  49 100 CALM      30.25F
MOSBY          SUNNY     52  50  93 CALM      30.25S
WHITEMAN AFB   CLOUDY    56  51  84 NE6       30.23S
CLINTON        CLOUDY    57  55  94 CALM      30.24R
SEDALIA        CLOUDY    58  52  80 E7        30.24S
WARSAW         NOT AVBL
MARSHALL       SUNNY     57  54  88 NE7       30.25S
CHILLICOTHE      N/A     54  49  83 NE3       30.27S
MOBERLY        SUNNY     54  50  87 NE6       30.25F
KIRKSVILLE     SUNNY     54  49  83 NE5       30.26S

$$

MOZ041-047>049-056>058-063>065-088>090-097-161500-
...EASTERN AND SOUTHERN MISSOURI...

CITY           SKY/WX    TMP DP  RH WIND       PRES   REMARKS
ST. LOUIS INTL CLOUDY    59  54  83 E5        30.23S
SPIRIT OF STL  PTSUNNY   59  55  87 NE6       30.22S FOG
COLUMBIA       CLOUDY    55  50  83 NE8       30.24S
JEFFERSON CITY CLOUDY    57  51  80 NE5       30.24S
MEXICO         CLOUDY   N/A N/A N/A NE6       30.24S
ROLLA          FOG       56  55  97 NE6       30.21S VSB 3/4
OSAGE BEACH    CLOUDY    57  54  88 E6        30.23R
SPRINGFIELD    CLOUDY    64  57  78 NE7       30.19S
BRANSON        CLOUDY    64  61  88 NE6       30.19S
NEVADA         CLOUDY    57  54  88 NE7       30.23S
JOPLIN         CLOUDY    59  57  93 NE9       30.20S
WEST PLAINS    CLOUDY    62  56  80 NE8       30.21R

$$

IAZ060-094-KSZ022-034>040-054-083-096-NEZ052-066-093-161500-
...KANSAS...SOUTHEAST NEBRASKA AND IOWA...

CITY           SKY/WX    TMP DP  RH WIND       PRES   REMARKS
TOPEKA         SUNNY     54  51  90 CALM      30.25F
MANHATTAN      SUNNY     51  48  89 CALM      30.24F
EMPORIA        SUNNY     53  50  89 E7        30.24S
CHANUTE        CLOUDY    60  52  74 NE9       30.21S
WICHITA        CLOUDY    61  51  70 NE9       30.20F
OMAHA          MOSUNNY   49  46  90 SE3       30.25S FOG
LINCOLN        SUNNY     49  44  83 CALM      30.24S
FALLS CITY       N/A     50  48  93 CALM      30.24F
LAMONI         SUNNY     53  49  86 CALM      30.25F
DES MOINES     SUNNY     51  47  86 CALM      30.25S

$$




USA.gov is the U.S. government's official web portal to all federal, state and local government web resources and services.